Location: Sundre
(51.7972°N, 114.6405°W)
Time: 14:27:57
(UTC-07:00)

KAITUO 1B - Visible Passes

Search period start: 23 January 2020 00:00
Search period end: 02 February 2020 00:00
Orbit: 494 x 517 km, 97.4° (Epoch: 23 January)

Date Brightness Start Highest point End Pass type
(mag) Time Alt. Az. Time Alt. Az. Time Alt. Az.
23 Jan ? 06:30:51 10° NE 06:34:04 28° E 06:37:16 10° SSE visible
23 Jan ? 18:48:48 10° SSW 18:52:00 27° W 18:55:11 10° NW visible
24 Jan ? 06:13:23 10° NE 06:16:03 19° E 06:18:43 10° SE visible
24 Jan ? 07:46:39 10° N 07:50:07 41° WNW 07:53:34 10° SW visible
24 Jan ? 18:30:31 10° S 18:34:01 41° W 18:37:33 10° NNW visible
25 Jan ? 05:56:19 10° ENE 05:57:59 13° E 05:59:40 10° ESE visible
25 Jan ? 07:28:39 10° N 07:32:18 65° WNW 07:35:54 10° SSW visible
25 Jan ? 18:12:26 10° S 18:16:05 66° WSW 18:19:46 10° NNW visible
26 Jan ? 07:10:45 10° NNE 07:14:25 79° ESE 07:18:04 10° S visible
26 Jan ? 17:54:31 10° SSE 17:58:12 79° ENE 18:01:53 10° NNW visible
26 Jan ? 19:31:37 10° WSW 19:32:35 11° W 19:33:33 10° WNW visible
27 Jan ? 06:52:55 10° NNE 06:56:29 49° E 07:00:02 10° S visible
27 Jan ? 19:12:06 10° SW 19:14:30 16° W 19:16:53 10° NW visible
28 Jan ? 06:35:13 10° NNE 06:38:32 31° E 06:41:49 10° SSE visible
28 Jan ? 18:53:25 10° SSW 18:56:28 24° W 18:59:32 10° NW visible
29 Jan ? 06:17:40 10° NE 06:20:31 21° E 06:23:21 10° SE visible
29 Jan ? 18:35:03 10° SSW 18:38:28 37° W 18:41:54 10° NNW visible
30 Jan ? 06:00:27 10° NE 06:02:27 14° E 06:04:28 10° ESE visible
30 Jan ? 07:33:05 10° N 07:36:42 58° WNW 07:40:17 10° SSW visible
30 Jan ? 18:16:54 10° S 18:20:31 58° WSW 18:24:09 10° NNW visible
31 Jan ? 07:15:09 10° NNE 07:18:49 88° ESE 07:22:29 10° SSW visible
31 Jan ? 17:58:56 10° SSE 18:02:36 88° ENE 18:06:18 10° NNW visible
01 Feb ? 06:57:17 10° NNE 07:00:54 55° E 07:04:30 10° S visible
01 Feb ? 19:16:49 10° SW 19:18:56 15° W 19:21:05 10° NW visible
